BREEZE-M DEB (TANK)

基本信息
目录编号:
37220
目录名称:
BREEZE-M DEB (TANK)
国际标识:
2010-061C
轨道中心:
EARTH
物体状态:
在轨
发射日期:
2010-11-14 UTC
轨道信息
数据来源: 国际轨道数据
星历时间: 2026-07-13T16:01:31+0800
半长轴: 14604.709km
偏心率: 0.5396297
轨道倾角: 49.443°
近地点辐角: 129.127°
升交点赤经: 347.015°
平近点角: 292.794°
近地点: 345.437km
远地点: 16107.707km
周期: 292.751分钟
每日圈数: 4.918848
详细信息
发射场:
TTMTR
轨道高度:
LEO
数据来源:
AOE Integration Group
参考系:
TEME
时间系统:
UTC
历元类型:
SGP4
2D轨道图
3D轨道图
轨道高度分析图
轨道倾角分析图
轨道综合分析图
查看轨道综合分析图